This demonstration page uses our WeatherBlox Daily Observations layout. Learn more.

Left ArrowRight Arrow

44.89941, -97.11507

Hourly Observations for January 24, 2021

Temp ( °F °C ) Dew Point ( °F °C ) Humidity (%) Winds ( mph kmh ) Pressure ( in mb ) Visibility ( mi km ) Precip ( " mm )
12:53 am 00:53 Cloudy 22 -5.6 20 -6.7 92 92 NW 5 7 30.05 1018 10 16 0.00 0.00
1:48 am 01:48 Cloudy 21 -6 18 -8 86 86 N 20 31 30.10 1019 10 16 0.00 0.00
1:53 am 01:53 Cloudy 22 -5.6 17 -8.3 82 82 N 17 28 30.06 1018 10 16 0.00 0.00
2:05 am 02:05 Cloudy 22 -5.6 16 -8.9 78 78 N 14 22 30.11 1020 10 16 0.00 0.00
2:53 am 02:53 Cloudy 20 -6.7 13 -10.6 74 74 N 14 22 30.07 1018 10 16 0.00 0.00
3:53 am 03:53 Clear 10 -12.2 7 -13.9 87 87 N 8 13 30.09 1019 10 16 0.00 0.00
4:53 am 04:53 Clear 11 -11.7 7 -13.9 84 84 N 5 7 30.12 1020 10 16 0.00 0.00
5:53 am 05:53 Clear 7 -13.9 3 -16.1 84 84 Calm 30.14 1021 10 16 0.00 0.00
6:53 am 06:53 Clear 5 -15 2 -16.7 87 87 Calm 30.16 1021 10 16 0.00 0.00
7:53 am 07:53 Clear 3 -16.1 -2 -18.9 79 79 N 3 6 30.17 1022 10 16 0.00 0.00
8:53 am 08:53 Sunny 5 -15 0 -17.8 79 79 Calm 30.20 1023 10 16 0.00 0.00
9:53 am 09:53 Sunny 7 -13.9 0 -17.8 73 73 NE 6 9 30.20 1023 10 16 0.00 0.00
10:53 am 10:53 Sunny 11 -11.7 4 -15.6 73 73 NNE 7 11 30.19 1022 10 16 0.00 0.00
11:53 am 11:53 Sunny 12 -11.1 4 -15.6 70 70 N 6 9 30.18 1022 10 16 0.00 0.00
12:53 pm 12:53 Sunny 13 -10.6 4 -15.6 67 67 SE 6 9 30.16 1021 10 16 0.00 0.00
1:53 pm 13:53 Sunny 16 -8.9 5 -15 62 62 Calm 30.15 1021 10 16 0.00 0.00
2:53 pm 14:53 Sunny 16 -8.9 3 -16.1 56 56 ENE 3 6 30.15 1021 10 16 0.00 0.00
3:53 pm 15:53 Sunny 14 -10 2 -16.7 58 58 E 8 13 30.15 1021 10 16 0.00 0.00
4:53 pm 16:53 Sunny 12 -11.1 2 -16.7 64 64 E 3 6 30.16 1021 10 16 0.00 0.00
5:53 pm 17:53 Cloudy 10 -12.2 -1 -18.3 61 61 E 7 11 30.16 1022 10 16 0.00 0.00
6:53 pm 18:53 Cloudy 9 -12.8 0 -17.8 66 66 E 5 7 30.16 1022 10 16 0.00 0.00
7:53 pm 19:53 Cloudy 9 -12.8 -3 -19.4 58 58 E 7 11 30.16 1021 10 16 0.00 0.00
8:53 pm 20:53 Cloudy 10 -12.2 -4 -20 53 53 E 7 11 30.14 1021 10 16 0.00 0.00
9:53 pm 21:53 Cloudy 11 -11.7 -3 -19.4 53 53 Calm 30.15 1021 10 16 0.00 0.00
10:53 pm 22:53 Cloudy 13 -10.6 -2 -18.9 51 51 ESE 6 9 30.13 1020 10 16 0.00 0.00
11:53 pm 23:53 Cloudy 12 -11.1 -1 -18.3 56 56 ESE 5 7 30.15 1021 10 16 0.00 0.00

Powered by AerisWeather